カタログに戻る

STARLINK-5582

運用中通信VLEO
NORAD 56777·PAYLOAD·🇺🇸 United States

打ち上げ May 31, 2023 から Vandenberg Space Force Base

Loading…

次のパス (今後24時間)

TLE

最新Source: CelesTrak SupGP

元期: Sep 14, 2026, 21:25 UTC

1 56777C 23078L   26257.89284722  .00026906  00000+0  22545-2 0  2575
2 56777  70.0014 227.6059 0003418 265.6475 180.7326 14.98321985    16

AllMySatでSTARLINK-5582をリアルタイム追跡

Download on the App Store